Location: Unspecified
(0.0000°N, 0.0000°E)
Time: 12:10:09
(UTC+00:00)

A-11 Canister half - Pass Details

Date: 24 November 2019
Orbit: 1526 x 1683 km, 47.3° (Epoch: 10 December)

Event Time Altitude Azimuth Distance (km) Brightness Sun altitude
Rises 06:23:12 0° 208° (SSW) 4,874 11.6 8.6°
Reaches altitude 10° 06:26:29 10° 203° (SSW) 3,903 11.2 9.3°
Maximum altitude 06:36:06 50° 130° (SE) 2,051 10.6 11.6°
Drops below altitude 10° 06:45:46 10° 57° (ENE) 3,936 11.8 13.8°
Sets 06:49:03 0° 52° (NE) 4,917 12.1 14.6°
